Location: Newark
(44.8699°N, 13.8438°E)
Time: 12:20:57
(UTC+00:00)

Envisat - Pass Details

Date: 22 September 2019
Orbit: 764 x 766 km, 98.1° (Epoch: 20 October)

Event Time Altitude Azimuth Distance (km) Brightness Sun altitude
Rises 18:08:18 0° 197° (SSW) 3,220 6.3 -12.3°
Reaches altitude 10° 18:10:57 10° 210° (SSW) 2,298 5.7 -12.8°
Maximum altitude 18:15:09 26° 266° (W) 1,482 5.4 -13.5°
Drops below altitude 10° 18:19:23 10° 323° (NW) 2,312 6.3 -14.2°
Sets 18:22:04 0° 336° (NNW) 3,243 6.9 -14.7°
